TimeMDT,TemperatureF,Dew PointF,Humidity,Sea Level PressureIn,VisibilityMPH,Wind Direction,Wind SpeedMPH,Gust SpeedMPH,PrecipitationIn,Events,Conditions,WindDirDegrees,DateUTC
12:55 AM,35.1,28.9,78,30.07,10.0,South,5.8,-,N/A,,Scattered Clouds,190,2013-04-12 06:55:00
1:55 AM,34.0,28.9,82,30.08,10.0,SSW,3.5,-,N/A,,Overcast,200,2013-04-12 07:55:00
2:55 AM,32.0,28.0,85,30.08,10.0,Calm,Calm,-,N/A,,Mostly Cloudy,0,2013-04-12 08:55:00
3:55 AM,27.0,25.0,92,30.09,10.0,Calm,Calm,-,N/A,,Clear,0,2013-04-12 09:55:00
4:55 AM,25.0,23.0,92,30.10,10.0,Calm,Calm,-,N/A,,Clear,0,2013-04-12 10:55:00
5:55 AM,24.1,23.0,96,30.11,8.0,Calm,Calm,-,N/A,,Clear,0,2013-04-12 11:55:00
6:55 AM,24.1,23.0,96,30.12,10.0,Calm,Calm,-,N/A,,Clear,0,2013-04-12 12:55:00
7:31 AM,24.8,21.2,86,30.06,1.8,Calm,Calm,-,N/A,,Clear,0,2013-04-12 13:31:00
7:41 AM,24.8,21.2,86,30.06,3.0,Calm,Calm,-,N/A,,Clear,0,2013-04-12 13:41:00
7:55 AM,26.1,24.1,92,30.12,7.0,Calm,Calm,-,N/A,,Clear,0,2013-04-12 13:55:00
8:13 AM,28.4,26.6,93,30.06,3.0,Calm,Calm,-,N/A,,Mostly Cloudy,0,2013-04-12 14:13:00
8:30 AM,30.2,28.4,93,30.05,10.0,Calm,Calm,-,N/A,,Clear,0,2013-04-12 14:30:00
8:55 AM,36.0,32.0,86,30.10,10.0,Calm,Calm,-,N/A,,Clear,0,2013-04-12 14:55:00
9:19 AM,37.4,32.0,81,30.05,10.0,Calm,Calm,-,N/A,,Mostly Cloudy,0,2013-04-12 15:19:00
9:44 AM,42.8,32.0,66,30.04,10.0,Variable,3.5,-,N/A,,Scattered Clouds,0,2013-04-12 15:44:00
9:55 AM,39.9,33.1,77,30.09,10.0,Calm,Calm,-,N/A,,Partly Cloudy,0,2013-04-12 15:55:00
10:55 AM,43.0,30.9,62,30.05,10.0,ESE,4.6,-,N/A,,Scattered Clouds,120,2013-04-12 16:55:00
11:09 AM,42.8,30.2,61,30.00,10.0,SE,4.6,-,N/A,,Mostly Cloudy,130,2013-04-12 17:09:00
11:25 AM,44.6,30.2,57,30.00,10.0,ESE,6.9,-,N/A,,Scattered Clouds,120,2013-04-12 17:25:00
11:55 AM,45.0,28.9,53,30.04,10.0,SSE,6.9,-,N/A,,Overcast,160,2013-04-12 17:55:00
12:55 PM,46.9,28.0,48,30.00,10.0,SSE,9.2,-,N/A,,Mostly Cloudy,150,2013-04-12 18:55:00
1:55 PM,48.0,27.0,44,29.95,10.0,SSE,12.7,-,N/A,,Mostly Cloudy,150,2013-04-12 19:55:00
2:55 PM,48.0,28.0,46,29.93,10.0,South,10.4,18.4,N/A,,Overcast,170,2013-04-12 20:55:00
3:55 PM,50.0,28.9,44,29.89,10.0,SSE,11.5,-,N/A,,Overcast,160,2013-04-12 21:55:00
4:55 PM,48.9,28.0,44,29.85,10.0,South,11.5,-,N/A,,Mostly Cloudy,170,2013-04-12 22:55:00
5:55 PM,48.9,27.0,43,29.80,10.0,SSE,12.7,-,N/A,,Overcast,150,2013-04-12 23:55:00
6:55 PM,48.0,27.0,44,29.76,10.0,SSE,8.1,-,N/A,,Overcast,160,2013-04-13 00:55:00
7:55 PM,46.9,28.0,48,29.70,10.0,South,4.6,-,N/A,,Overcast,180,2013-04-13 01:55:00
8:55 PM,42.1,35.1,76,29.71,10.0,WSW,8.1,-,0.00,Rain,Light Rain,240,2013-04-13 02:55:00
9:55 PM,41.0,37.0,86,29.70,10.0,SSE,3.5,-,0.01,Rain,Light Rain,160,2013-04-13 03:55:00
10:55 PM,39.9,37.0,89,29.65,10.0,SE,4.6,-,0.01,Rain,Light Rain,140,2013-04-13 04:55:00
11:13 PM,39.2,37.4,93,29.60,10.0,SSE,6.9,-,0.01,Rain,Light Rain,150,2013-04-13 05:13:00
11:55 PM,39.0,36.0,89,29.61,9.0,SSE,12.7,-,0.03,Rain,Light Rain,150,2013-04-13 05:55:00